#timestamp,LO_Frequency,Hit,StdDev 
1566597615.2,286047003.4,N
1566597635.0,286047003.2,N
1566597635.9,286047003.2,N
1566597655.8,286047001.5,N
1566597675.6,286047001.7,N
1566597695.5,286047004.2,Y
1566597715.3,286047000.6,P
1566597735.1,286047000.3,N
1566597755.9,286047000.6,N
1566597775.7,286047000.8,N
1566597795.5,286046998.8,N
1566597815.4,286047001.0,N
1566597835.2,286047000.5,N
1566597855.1,286047000.8,N
1566597856.0,286047000.8,N
1566597875.8,286047002.8,N
1566597895.6,286047002.6,N
1566597915.5,286046998.8,N
1566597935.3,286046998.7,N
1566597955.1,286047000.5,N
1566597975.9,286046999.9,N
1566597995.7,286046999.7,N
1566598015.6,286047002.0,N
1566598035.4,286047001.5,N
1566598055.2,286047002.6,N
1566598075.1,286046999.9,N
1566598076.0,286046999.9,N
1566598095.8,286047002.2,N
1566598115.6,286047000.5,N
1566598135.5,286047000.4,N
1566598155.3,286047001.2,N
1566598175.2,286047001.2,N
1566598195.9,286046999.1,N
1566598215.7,286046998.7,N
1566598235.6,286047002.5,N
1566598255.4,286047000.0,N
1566598275.2,286047000.9,N
1566598295.1,286047000.9,N
1566598296.0,286047000.9,N
1566598315.8,286047000.8,N
1566598335.7,286046998.5,N
1566598355.5,286046999.2,N
1566598375.3,286046998.6,N
1566598395.2,286047000.4,N
1566598415.0,286046999.8,N
1566598415.9,286046999.8,N
1566598435.7,286047000.2,N
1566598455.6,286047001.1,N
1566598475.4,286047000.0,N
1566598495.3,286046998.5,N
1566598515.1,286046999.2,N
1566598516.0,286046999.2,N
1566598535.8,286047000.7,N
1566598555.7,286047000.3,N
1566598575.5,286047000.2,N
1566598595.3,286047002.7,N
1566598615.2,286047000.2,N
1566598635.0,286046999.7,N
1566598635.9,286046999.7,N
1566598655.8,286047002.3,N
1566598675.6,286047000.4,N
1566598695.4,286047000.6,N
1566598715.3,286046999.9,N
1566598735.1,286047002.4,N
1566598755.8,286047001.8,N
1566598775.7,286047004.4,Y
1566598795.5,286046999.7,P
1566598815.4,286047000.1,N
1566598835.2,286046999.8,N
1566598855.0,286047000.0,N
1566598855.9,286047000.0,N
1566598875.8,286046999.9,N
1566598895.6,286047000.4,N
1566598915.5,286047000.2,N
1566598935.3,286047001.5,Y
1566598955.1,286047000.3,P
1566598975.9,286047002.1,P
1566598995.7,286046999.7,N
1566599015.5,286047001.8,N
1566599035.4,286047002.2,N
1566599055.2,286047001.9,N
1566599075.1,286047000.1,N
1566599076.0,286047000.1,N
1566599095.8,286047002.8,N
1566599115.6,286047001.2,N
1566599135.5,286046998.2,N
1566599155.3,286046999.2,N
1566599175.1,286046997.0,N
1566599195.9,286046999.2,N
1566599215.7,286046998.4,N
1566599235.6,286046998.1,N
1566599255.4,286047000.9,N
1566599275.2,286047001.0,N
1566599295.1,286046999.9,N
1566599296.0,286046999.9,N
1566599315.8,286047001.9,N
1566599335.6,286047002.4,N
1566599355.5,286047000.7,N
1566599375.3,286047000.0,N
1566599395.1,286047000.8,N
1566599415.9,286047000.9,N
1566599435.7,286047001.2,N
1566599455.6,286047000.8,N
1566599475.4,286047000.7,N
1566599495.2,286047001.1,N
1566599515.1,286046998.9,N
1566599516.0,286046998.9,N
1566599535.8,286046998.7,N
1566599555.6,286046998.1,N
1566599575.5,286046998.6,N
1566599595.3,286046998.2,N
1566599615.2,286047001.2,N
1566599635.9,286047001.2,N
1566599655.7,286047000.5,N
1566599675.6,286047001.1,N
1566599695.4,286046998.2,N
1566599715.2,286047000.7,N
1566599735.1,286046998.5,N
1566599736.0,286046998.5,N
1566599755.8,286046998.3,N
1566599775.7,286047000.8,N
1566599795.5,286046998.9,N
1566599815.3,286046999.3,N
1566599835.2,286046998.2,N
1566599855.0,286046998.4,N
1566599855.9,286046998.4,N
1566599875.8,286047000.6,N
1566599895.6,286047000.0,N
1566599915.4,286047000.6,N
1566599935.3,286047000.9,N
1566599955.1,286047000.3,N
1566599975.8,286046998.1,N
1566599995.7,286047000.8,N
1566600015.5,286047000.6,N
1566600035.4,286047000.5,N
1566600055.2,286046998.7,N
1566600075.0,286046996.8,N
1566600075.9,286046996.8,N
1566600095.8,286046996.6,N
1566600115.6,286046996.8,N
1566600135.4,286046999.6,N
1566600155.3,286046997.2,N
1566600175.1,286046997.3,N
1566600195.9,286046997.5,N
1566600215.7,286046995.0,Y
1566600235.5,286046996.4,P
1566600255.4,286046993.6,P
1566600275.2,286046995.2,N
1566600295.1,286046995.5,N
1566600296.0,286046995.5,N
1566600315.8,286046997.8,N
1566600335.6,286046996.7,N
1566600355.5,286046997.0,N
1566600375.3,286046999.6,N
1566600395.1,286046998.4,N
1566600415.9,286046997.0,N
1566600435.7,286046999.4,N
1566600455.6,286046998.8,N
1566600475.4,286046999.5,N
1566600495.2,286046997.1,N
1566600515.1,286046997.1,N
1566600516.0,286046997.1,N
1566600535.8,286046995.1,Y
1566600555.6,286046998.6,P
1566600575.5,286047000.8,N
1566600595.3,286046998.9,N
1566600615.2,286047000.6,N
1566600635.9,286047002.8,N
1566600655.7,286047000.0,N
1566600675.6,286046998.5,N
1566600695.4,286046998.2,N
1566600715.2,286046997.1,N
1566600735.1,286046999.4,N
1566600736.0,286046999.4,N
1566600755.8,286047001.1,N
1566600775.7,286047002.7,N
1566600795.5,286047002.7,N
1566600815.3,286047002.1,N
1566600835.2,286046998.2,N
1566600855.0,286047000.2,N
1566600855.9,286047000.2,N
1566600875.7,286047000.3,N
1566600895.6,286046999.7,N
1566600915.4,286047002.3,N
1566600935.3,286047003.6,N
1566600955.1,286047001.8,N
1566600956.0,286047001.8,N
1566600975.8,286047001.8,N
1566600995.7,286047003.0,N
1566601015.5,286047003.5,N
1566601035.3,286046999.7,N
1566601055.2,286047001.8,N
1566601075.0,286047001.5,N
1566601075.9,286047001.5,N
1566601095.8,286047001.4,N
1566601115.6,286047003.0,N
1566601135.4,286047004.1,N
1566601155.3,286047005.6,Y
1566601175.1,286047001.8,P
1566601195.9,286047003.3,P
